Port Huron, MI

2:21 PM EST on February 23, 2018 (GMT -0500)
Saint Clair County International

Weather History for KPHN - January, 2014

Change the Weather History Date:

Friday, January 17, 2014

  Actual Average (KMTC) Record (KMTC)
Temperature  
Mean Temperature 26 °F -  
Max Temperature 32 °F 31 °F 62 °F (1952)
Min Temperature 21 °F 16 °F -9 °F (2009)
Degree Days  
Heating Degree Days 38    
Moisture  
Dew Point 22 °F    
Average Humidity 78    
Maximum Humidity 93    
Minimum Humidity 60    
Precipitation  
Precipitation 0.00 in - - ()
Sea Level Pressure  
Sea Level Pressure 29.74 in    
Wind  
Wind Speed 8 mph (SW)    
Max Wind Speed 13 mph    
Max Gust Speed 17 mph    
Visibility 7 miles    
Events Snow    
Averages and records for this station are not official NWS values.
T = Trace of Precipitation, MM = Missing Value Source: NWS Daily Summary

Daily Weather History Graph

Daily Weather History Graph

Search for Another Location

Airport or City:

Trip Planner

Search our weather history database for the weather conditions in past years. The results will help you decide how hot, cold, wet, or windy it might be!

Date:

Astronomy

Jan. 17, 2014 Rise Set
Actual Time 7:57 AM EST 5:23 PM EST
Civil Twilight 7:26 AM EST 5:54 PM EST
Nautical Twilight 6:51 AM EST 6:29 PM EST
Astronomical Twilight 6:17 AM EST 7:03 PM EST
Moon 7:12 PM EST (1/17) 8:21 AM EST (1/17)
Length of Visible Light 10h 28m
Length of Day
9h 26m
Full, 98% of the Moon is Illuminated
Jan 17
Full
Jan 24
Last Quarter
Jan 30
New
Feb 6
First Quarter
Feb 14
Full

Hourly Weather History & Observations

Time (EST) Temp. Windchill Dew Point Humidity Pressure Visibility Wind Dir Wind Speed Gust Speed Precip Events Conditions
12:18 AM 26.6 °F 17.5 °F 24.8 °F 93% 29.65 in 2.5 mi South 9.2 mph - N/A Snow Light Snow
12:38 AM 26.6 °F 16.2 °F 24.8 °F 93% 29.64 in 5.0 mi South 11.5 mph - N/A Snow Light Snow
12:58 AM 26.6 °F 16.2 °F 24.8 °F 93% 29.63 in 3.0 mi South 11.5 mph 17.3 mph N/A Snow Light Snow
1:18 AM 26.6 °F 15.7 °F 24.8 °F 93% 29.63 in 4.0 mi South 12.7 mph - N/A Snow Light Snow
1:38 AM 26.6 °F 16.8 °F 24.8 °F 93% 29.63 in 4.0 mi South 10.4 mph 17.3 mph N/A Snow Light Snow
1:58 AM 26.6 °F 17.5 °F 24.8 °F 93% 29.63 in 4.0 mi South 9.2 mph 17.3 mph N/A Snow Light Snow
2:18 AM 26.6 °F 18.2 °F 24.8 °F 93% 29.63 in 4.0 mi South 8.1 mph - N/A Snow Light Snow
2:38 AM 28.4 °F 19.1 °F 24.8 °F 86% 29.63 in 4.0 mi South 10.4 mph - N/A Snow Light Snow
2:58 AM 28.4 °F 19.1 °F 24.8 °F 86% 29.63 in 5.0 mi South 10.4 mph - N/A Snow Light Snow
3:18 AM 28.4 °F 19.1 °F 24.8 °F 86% 29.63 in 3.0 mi South 10.4 mph - N/A Snow Light Snow
3:38 AM 28.4 °F 19.1 °F 24.8 °F 86% 29.63 in 3.0 mi South 10.4 mph - N/A Snow Light Snow
3:58 AM 28.4 °F 19.1 °F 26.6 °F 93% 29.63 in 2.0 mi South 10.4 mph - N/A Snow Light Snow
4:18 AM 28.4 °F 19.1 °F 26.6 °F 93% 29.63 in 2.0 mi SSW 10.4 mph - N/A Snow Light Snow
4:38 AM 28.4 °F 19.1 °F 26.6 °F 93% 29.63 in 2.5 mi SSW 10.4 mph - N/A Snow Light Snow
4:58 AM 28.4 °F 19.7 °F 26.6 °F 93% 29.64 in 4.0 mi SSW 9.2 mph 16.1 mph N/A Snow Light Snow
5:18 AM 28.4 °F 21.2 °F 26.6 °F 93% 29.64 in 2.0 mi SW 6.9 mph - N/A Snow Light Snow
5:38 AM 28.4 °F 21.2 °F 26.6 °F 93% 29.65 in 4.0 mi SW 6.9 mph - N/A Snow Light Snow
5:58 AM 28.4 °F 21.2 °F 26.6 °F 93% 29.65 in 5.0 mi SW 6.9 mph - N/A Snow Light Snow
6:18 AM 28.4 °F 20.4 °F 26.6 °F 93% 29.66 in 4.0 mi SW 8.1 mph - N/A Snow Light Snow
6:38 AM 28.4 °F 20.4 °F 26.6 °F 93% 29.66 in 4.0 mi SSW 8.1 mph - N/A Snow Light Snow
6:58 AM 28.4 °F 20.4 °F 26.6 °F 93% 29.67 in 3.0 mi SW 8.1 mph - N/A Snow Light Snow
7:18 AM 28.4 °F 20.4 °F 26.6 °F 93% 29.68 in 3.0 mi SW 8.1 mph - N/A Snow Light Snow
7:38 AM 28.4 °F 19.1 °F 24.8 °F 86% 29.69 in 3.0 mi SW 10.4 mph 16.1 mph N/A Snow Light Snow
7:58 AM 28.4 °F 19.7 °F 24.8 °F 86% 29.70 in 10.0 mi SW 9.2 mph - N/A   Overcast
8:18 AM 28.4 °F 19.7 °F 23.0 °F 80% 29.70 in 10.0 mi SW 9.2 mph 16.1 mph N/A   Overcast
8:38 AM 28.4 °F 22.2 °F 23.0 °F 80% 29.71 in 10.0 mi SW 5.8 mph - N/A   Overcast
8:58 AM 28.4 °F 22.2 °F 23.0 °F 80% 29.72 in 10.0 mi SW 5.8 mph - N/A   Overcast
9:18 AM 28.4 °F 22.2 °F 23.0 °F 80% 29.74 in 10.0 mi SW 5.8 mph - N/A   Overcast
9:38 AM 28.4 °F 22.2 °F 21.2 °F 74% 29.74 in 10.0 mi SW 5.8 mph - N/A   Overcast
9:58 AM 28.4 °F 22.2 °F 21.2 °F 74% 29.75 in 10.0 mi SW 5.8 mph - N/A   Overcast
10:18 AM 28.4 °F 21.2 °F 21.2 °F 74% 29.75 in 10.0 mi SW 6.9 mph - N/A   Scattered Clouds
10:38 AM 30.2 °F 23.4 °F 21.2 °F 69% 29.75 in 10.0 mi SW 6.9 mph - N/A   Scattered Clouds
10:58 AM 30.2 °F 24.3 °F 21.2 °F 69% 29.76 in 10.0 mi SSW 5.8 mph - N/A   Scattered Clouds
11:18 AM 32.0 °F 23.6 °F 21.2 °F 64% 29.76 in 10.0 mi SSW 10.4 mph - N/A   Mostly Cloudy
11:38 AM 32.0 °F 24.2 °F 21.2 °F 64% 29.76 in 10.0 mi SSW 9.2 mph - N/A   Overcast
11:58 AM 32.0 °F 24.2 °F 21.2 °F 64% 29.76 in 10.0 mi SSW 9.2 mph - N/A   Overcast
12:18 PM 30.2 °F 22.6 °F 21.2 °F 69% 29.76 in 10.0 mi SSW 8.1 mph - N/A   Overcast
12:38 PM 30.2 °F 21.3 °F 19.4 °F 64% 29.75 in 10.0 mi SSW 10.4 mph - N/A   Overcast
12:58 PM 30.2 °F 21.9 °F 21.2 °F 69% 29.75 in 10.0 mi SSW 9.2 mph - N/A   Overcast
1:18 PM 30.2 °F 22.6 °F 21.2 °F 69% 29.75 in 10.0 mi SSW 8.1 mph - N/A   Overcast
1:38 PM 32.0 °F 23.0 °F 21.2 °F 64% 29.74 in 10.0 mi SSW 11.5 mph - N/A   Scattered Clouds
1:58 PM 32.0 °F 24.2 °F 21.2 °F 64% 29.75 in 10.0 mi South 9.2 mph - N/A   Mostly Cloudy
2:18 PM 32.0 °F 25.6 °F 21.2 °F 64% 29.75 in 10.0 mi SSW 6.9 mph - N/A   Overcast
2:38 PM 32.0 °F 27.5 °F 21.2 °F 64% 29.75 in 10.0 mi SSW 4.6 mph - N/A   Overcast
2:58 PM 32.0 °F 25.6 °F 21.2 °F 64% 29.76 in 10.0 mi SSW 6.9 mph - N/A   Overcast
3:18 PM 32.0 °F 28.7 °F 21.2 °F 64% 29.75 in 10.0 mi South 3.5 mph - N/A   Overcast
3:38 PM 32.0 °F - 21.2 °F 64% 29.76 in 10.0 mi Calm Calm - N/A   Scattered Clouds
3:58 PM 32.0 °F - 21.2 °F 64% 29.77 in 10.0 mi Calm Calm - N/A   Mostly Cloudy
4:18 PM 32.0 °F 27.5 °F 19.4 °F 60% 29.77 in 10.0 mi WNW 4.6 mph - N/A   Mostly Cloudy
4:38 PM 30.2 °F - 19.4 °F 64% 29.78 in 10.0 mi Calm Calm - N/A   Mostly Cloudy
4:58 PM 30.2 °F - 19.4 °F 64% 29.78 in 10.0 mi Calm Calm - N/A   Mostly Cloudy
5:18 PM 30.2 °F - 19.4 °F 64% 29.79 in 10.0 mi Calm Calm - N/A   Overcast
5:38 PM 30.2 °F 25.4 °F 21.2 °F 69% 29.80 in 10.0 mi WNW 4.6 mph - N/A   Overcast
5:58 PM 30.2 °F 22.6 °F 19.4 °F 64% 29.80 in 10.0 mi WNW 8.1 mph - N/A   Overcast
6:18 PM 28.4 °F 22.2 °F 19.4 °F 69% 29.80 in 10.0 mi WNW 5.8 mph - N/A   Overcast
6:38 PM 26.6 °F 21.2 °F 19.4 °F 74% 29.81 in 10.0 mi WNW 4.6 mph - N/A   Mostly Cloudy
6:58 PM 26.6 °F 19.1 °F 19.4 °F 74% 29.82 in 10.0 mi WNW 6.9 mph - N/A   Overcast
7:18 PM 26.6 °F 17.5 °F 19.4 °F 74% 29.83 in 10.0 mi WNW 9.2 mph - N/A   Overcast
7:38 PM 24.8 °F 16.1 °F 17.6 °F 74% 29.83 in 10.0 mi West 8.1 mph - N/A   Overcast
7:58 PM 24.8 °F 14.6 °F 17.6 °F 74% 29.84 in 10.0 mi WNW 10.4 mph 17.3 mph N/A   Overcast
8:18 PM 24.8 °F 15.3 °F 17.6 °F 74% 29.84 in 7.0 mi WNW 9.2 mph 17.3 mph N/A Snow Light Snow
8:38 PM 23.0 °F 14.7 °F 17.6 °F 80% 29.85 in 5.0 mi West 6.9 mph - N/A Snow Light Snow
8:58 PM 23.0 °F 13.9 °F 17.6 °F 80% 29.85 in 4.0 mi West 8.1 mph - N/A Snow Light Snow
9:18 PM 23.0 °F 15.8 °F 17.6 °F 80% 29.86 in 4.0 mi West 5.8 mph - N/A Snow Light Snow
9:38 PM 23.0 °F 15.8 °F 17.6 °F 80% 29.86 in 4.0 mi West 5.8 mph - N/A Snow Light Snow
9:58 PM 23.0 °F 13.9 °F 17.6 °F 80% 29.86 in 5.0 mi West 8.1 mph - N/A Snow Light Snow
10:18 PM 21.2 °F 11.7 °F 15.8 °F 80% 29.86 in 5.0 mi West 8.1 mph - N/A Snow Light Snow
10:38 PM 21.2 °F 11.7 °F 15.8 °F 80% 29.86 in 10.0 mi WNW 8.1 mph - N/A   Overcast
10:58 PM 21.2 °F 8.9 °F 14.0 °F 74% 29.86 in 10.0 mi West 12.7 mph 17.3 mph N/A   Overcast
11:18 PM 21.2 °F 12.6 °F 14.0 °F 74% 29.86 in 10.0 mi West 6.9 mph 17.3 mph N/A   Overcast
11:38 PM 21.2 °F 13.6 °F 14.0 °F 74% 29.87 in 10.0 mi WSW 5.8 mph - N/A   Overcast
11:58 PM 21.2 °F 12.6 °F 14.0 °F 74% 29.87 in 10.0 mi WSW 6.9 mph - N/A   Overcast